Flag for U.S.A. Weather past 2 weeks in Charlotte, North Carolina, U.S.A.

Now
58 °F

Passing clouds.


Feels Like: 55 °F
Forecast: 47 / 71 °F
Wind: 13 mph from Southeast

Location: Charlotte / Douglas International Airport

Current Time: Apr 2, 2015 at 1:23:24 AM

Latest Report: Apr 2, 2015 at 12:52 AM


Visibility: 10 mi

Pressure: 30.20 "Hg

Humidity: 44%

Dew point: 36 °F

Location of CharlotteLocation

Historic Weather in Charlotte — Graph

°F

Charlotte temperature yesterday

Maximum temperature yesterday: 73 °F (at 3:52 PM)
Minimum temperature yesterday: 52 °F (at 5:52 AM)
Average temperature yesterday: 64 °F

Past Weeks' High & Low Weather Summary

 TemperatureHumidityPressure
High76 °F (Mar 31, 4:52 PM)100% (Mar 21, 3:52 AM)30.45 "Hg (Mar 21, 3:52 AM)
Low29 °F (Mar 29, 6:52 AM)11% (Apr 1, 4:52 PM)29.65 "Hg (Mar 27, 4:52 AM)
Average55 °F55%30.06 "Hg
* Reported Mar 17 11:52 PM — Apr 1 11:52 PM, Charlotte, Weather by CustomWeather, © 2015

Note: Actual official high and low records may vary slightly from our data, if they occured in-between our weather recording intervals... More about our weather records

Advertising

Charlotte weather history for previous 24 hours

 ConditionsComfort  
Time TempWeatherWind HumidityBarometerVisibility
11:52 PM
Wed, Apr 1
60 °FPassing clouds.12 mph35%30.19 "Hg10 mi
10:52 PM63 °FPassing clouds.12 mph22%30.17 "Hg10 mi
9:52 PM64 °FPassing clouds.8 mph22%30.15 "Hg10 mi
8:52 PM67 °FPassing clouds.8 mph13%30.13 "Hg10 mi
7:52 PM68 °FPassing clouds.8 mph13%30.10 "Hg10 mi
6:52 PM71 °FPassing clouds.3 mph12%30.09 "Hg10 mi
5:52 PM72 °FPassing clouds.3 mph11%30.07 "Hg10 mi
4:52 PM73 °FPassing clouds.5 mph11%30.06 "Hg10 mi
3:52 PM73 °FPassing clouds.8 mph13%30.06 "HgN/A
2:52 PM72 °FSunny.3 mph12%30.06 "Hg10 mi
1:52 PM71 °FSunny.7 mph19%30.08 "Hg10 mi
12:52 PM69 °FScattered clouds.10 mph23%30.07 "Hg10 mi
11:52 AM65 °FScattered clouds.6 mph28%30.09 "Hg10 mi
10:52 AM64 °FScattered clouds.7 mph32%30.09 "Hg10 mi
9:52 AM62 °FScattered clouds.12 mph34%30.06 "Hg10 mi
8:52 AM59 °FSunny.13 mph39%30.04 "Hg10 mi
7:52 AM57 °FPassing clouds.9 mph47%30.00 "Hg10 mi
6:52 AM53 °FPassing clouds.5 mph56%29.96 "Hg10 mi
5:52 AM52 °FClear.6 mph75%29.92 "Hg10 mi
4:52 AM56 °FClear.5 mph67%29.89 "Hg10 mi
3:52 AM54 °FClear.No wind69%29.86 "Hg10 mi
2:52 AM57 °FClear.3 mph64%29.85 "Hg10 mi
1:52 AM61 °FClear.6 mph56%29.84 "Hg10 mi
Weather by CustomWeather, © 2015

See weather overviewHow to use our weather pages